Regional Weather Roundup
Issued by NWS

Home | Current Version | Previous Version | Text Only | Print | Product List | Glossary Off
Versions: 1 2 3 4 5 6 7 8 9 10 11 12 13 14 15 16 17 18 19 20 21 22 23 24 25 26 27 28 29 30 31 32 33 34 35 36 37 38 39 40 41 42 43 44 45 46 47 48 49 50

000
ASUS45 KCYS 281710
RWRWY

WYOMING REGIONAL WEATHER ROUNDUP
NATIONAL WEATHER SERVICE CHEYENNE WY
1000 AM MST SUN DEC 28 2014

NOTE:  "FAIR" INDICATES FEW OR NO CLOUDS BELOW 12,000 FEET
WITH NO SIGNIFICANT WEATHER AND/OR OBSTRUCTIONS TO VISIBILITY.

WYZ001-281800-
YELLOWSTONE NATIONAL PARK

CITY           SKY/WX    TMP DP  RH WIND       PRES   REMARKS
LK YELLOWSTONE   N/A     13   7  77 CALM      29.84S
W YELLOWSTONE  NOT AVBL

$$
WYZ002>013-054>058-071-098>099-281800-
NORTHERN WYOMING

CITY           SKY/WX    TMP DP  RH WIND       PRES   REMARKS
JACKSON        LGT SNOW  16  14  93 SW9       29.89S VSB 1   WCI   4
CODY           CLOUDY    16   7  67 NE8       29.84R WCI   5
GREYBULL       CLOUDY     8   4  83 CALM      29.93R
WORLAND        FAIR       1  -5  75 CALM      29.91R
SHERIDAN       CLOUDY    17  10  74 CALM      29.87R
BUFFALO        CLOUDY    23  11  60 NW3       29.84R
GILLETTE       CLOUDY    19  11  70 SE6       29.86R WCI  11
HULETT           N/A    N/A N/A N/A MISG        N/A
NEWCASTLE      FAIR      18  12  79 CALM      29.90S

$$
WYZ014>020-022>026-101>103-281800-
CENTRAL WYOMING

CITY           SKY/WX    TMP DP  RH WIND       PRES   REMARKS
BIG PINEY      LGT SNOW   2   0  91 CALM      29.91F FOG
PINEDALE       LGT SNOW   9   5  85 CALM      29.93R VSB 1
DUBOIS         NOT AVBL
LANDER         FAIR      12   2  64 NW6       29.84S WCI   3
RIVERTON       FAIR      13   2  61 SW7       29.86R WCI   3
CASPER         FAIR      23  11  60 SW22G31   29.86R WCI   8
DOUGLAS        FAIR      26  14  60 W13       29.86S WCI  15

$$
WYZ021-027>030-104>119-281800-
SOUTHERN WYOMING

CITY           SKY/WX    TMP DP  RH WIND       PRES   REMARKS
EVANSTON       LGT SNOW  20  16  84 SW15      29.94S FOG     WCI   6
FORT BRIDGER   PTSUNNY   25  18  74 W26G33    29.95R WCI   9
ROCK SPRINGS   SNOW      17  14  88 S7        29.94R VSB 1/4 WCI   8
DIXON          CLOUDY    21  11  65 SW16      30.01F WCI   7
RAWLINS        PTSUNNY   19  10  68 SW25G32   29.88F WCI   1
SARATOGA       CLOUDY    19  10  68 SE5       29.91F WCI  13
LARAMIE        FAIR      17   8  67 SW16      29.85F WCI   2
CHEYENNE       FAIR      26   8  46 W10G25    29.87R WCI  16
TORRINGTON     CLOUDY    26  15  63 W9        29.91S WCI  17
PINE BLUFFS    CLOUDY    23  12  63 W8        29.92F WCI  14

$$



USA.gov is the U.S. government's official web portal to all federal, state and local government web resources and services.